TimeCET,TemperatureF,Dew PointF,Humidity,Sea Level PressureIn,VisibilityMPH,Wind Direction,Wind SpeedMPH,Gust SpeedMPH,PrecipitationIn,Events,Conditions,WindDirDegrees,DateUTC
12:00 AM,50.0,42.8,76,29.86,6.2,WSW,3.5,-,N/A,,Partly Cloudy,240,2012-11-02 23:00:00
12:30 AM,55.4,44.6,67,29.86,6.2,Variable,1.2,-,N/A,,Partly Cloudy,0,2012-11-02 23:30:00
1:00 AM,55,45,59,29.85,12,SW,4.6,,,,Scattered Clouds,230,2012-11-03 00:00:00
1:00 AM,53.6,44.6,72,29.86,6.2,Variable,2.3,-,N/A,,Partly Cloudy,0,2012-11-03 00:00:00
1:30 AM,53.6,44.6,72,29.83,6.2,SW,3.5,-,N/A,,Partly Cloudy,220,2012-11-03 00:30:00
2:00 AM,53.6,44.6,72,29.83,6.2,SSW,5.8,-,N/A,,Partly Cloudy,210,2012-11-03 01:00:00
2:30 AM,55.4,44.6,67,29.83,6.2,South,12.7,-,N/A,,Partly Cloudy,190,2012-11-03 01:30:00
3:00 AM,55.4,44.6,67,29.83,6.2,SSW,10.4,-,N/A,,Partly Cloudy,210,2012-11-03 02:00:00
3:30 AM,57.2,42.8,59,29.83,6.2,South,10.4,-,N/A,,Partly Cloudy,190,2012-11-03 02:30:00
4:00 AM,57.2,44.6,63,29.80,6.2,SSW,8.1,-,N/A,,Partly Cloudy,200,2012-11-03 03:00:00
4:30 AM,57.2,42.8,59,29.80,6.2,SW,4.6,-,N/A,,Partly Cloudy,230,2012-11-03 03:30:00
5:00 AM,57.2,42.8,59,29.80,6.2,West,1.2,-,N/A,,Partly Cloudy,260,2012-11-03 04:00:00
5:30 AM,57.2,44.6,63,29.80,6.2,SSW,6.9,-,N/A,,Partly Cloudy,210,2012-11-03 04:30:00
6:00 AM,57.2,44.6,63,29.80,6.2,SSW,6.9,-,N/A,,Partly Cloudy,210,2012-11-03 05:00:00
6:30 AM,59.0,42.8,55,29.80,6.2,SW,9.2,-,N/A,,Partly Cloudy,220,2012-11-03 05:30:00
7:00 AM,58,45,51,29.78,12,WSW,3.5,,,,Scattered Clouds,240,2012-11-03 06:00:00
7:00 AM,57.2,44.6,63,29.80,6.2,Variable,2.3,-,N/A,,Partly Cloudy,0,2012-11-03 06:00:00
7:30 AM,55.4,44.6,67,29.80,6.2,Variable,1.2,-,N/A,,Partly Cloudy,0,2012-11-03 06:30:00
8:00 AM,57.2,44.6,63,29.80,6.2,WSW,3.5,-,N/A,,Partly Cloudy,250,2012-11-03 07:00:00
8:30 AM,55.4,44.6,67,29.80,6.2,WSW,3.5,-,N/A,,Partly Cloudy,250,2012-11-03 07:30:00
9:00 AM,57.2,44.6,63,29.80,6.2,WSW,3.5,-,N/A,,Partly Cloudy,240,2012-11-03 08:00:00
9:30 AM,57.2,46.4,67,29.80,6.2,WNW,3.5,-,N/A,,Partly Cloudy,300,2012-11-03 08:30:00
10:00 AM,59.0,46.4,63,29.80,6.2,SW,3.5,-,N/A,,Partly Cloudy,220,2012-11-03 09:00:00
10:30 AM,60.8,44.6,55,29.80,6.2,SW,4.6,-,N/A,,Partly Cloudy,220,2012-11-03 09:30:00
11:00 AM,60.8,46.4,59,29.80,6.2,SSW,9.2,-,N/A,,Partly Cloudy,210,2012-11-03 10:00:00
11:30 AM,64.4,46.4,52,29.80,6.2,SSW,9.2,-,N/A,,Partly Cloudy,210,2012-11-03 10:30:00
12:00 PM,64.4,48.2,56,29.80,6.2,SSW,9.2,-,N/A,,Partly Cloudy,210,2012-11-03 11:00:00
12:30 PM,66.2,46.4,49,29.77,6.2,SSW,12.7,-,N/A,,Partly Cloudy,200,2012-11-03 11:30:00
1:00 PM,68,48,37,29.75,16,SSW,17.3,,,,Partly Cloudy,200,2012-11-03 12:00:00
1:00 PM,66.2,48.2,52,29.77,6.2,SSW,16.1,-,N/A,,Partly Cloudy,200,2012-11-03 12:00:00
1:30 PM,66.2,46.4,49,29.74,6.2,SSW,16.1,-,N/A,,Partly Cloudy,200,2012-11-03 12:30:00
2:00 PM,66.2,46.4,49,29.74,6.2,SSW,18.4,29.9,N/A,,Partly Cloudy,200,2012-11-03 13:00:00
2:30 PM,66.2,46.4,49,29.74,6.2,SSW,13.8,-,N/A,,Partly Cloudy,200,2012-11-03 13:30:00
3:00 PM,66.2,48.2,52,29.74,6.2,South,13.8,-,N/A,,Partly Cloudy,190,2012-11-03 14:00:00
3:30 PM,66.2,50.0,56,29.74,6.2,SSW,12.7,-,N/A,,Partly Cloudy,200,2012-11-03 14:30:00
4:00 PM,66.2,51.8,60,29.74,6.2,SSW,12.7,-,N/A,,Partly Cloudy,210,2012-11-03 15:00:00
4:30 PM,64.4,51.8,64,29.71,-9999.0,South,16.1,-,N/A,,Clear,190,2012-11-03 15:30:00
5:00 PM,64.4,51.8,64,29.71,-9999.0,SSW,16.1,-,N/A,,Clear,200,2012-11-03 16:00:00
5:30 PM,62.6,51.8,68,29.71,-9999.0,SSW,13.8,-,N/A,,Clear,210,2012-11-03 16:30:00
6:00 PM,60.8,53.6,77,29.74,-9999.0,SSW,11.5,-,N/A,,Clear,200,2012-11-03 17:00:00
6:30 PM,60.8,51.8,72,29.74,-9999.0,SW,9.2,-,N/A,,Clear,220,2012-11-03 17:30:00
7:00 PM,60,53,70,29.73,16,SSW,11.5,,,,Partly Cloudy,210,2012-11-03 18:00:00
7:00 PM,59.0,51.8,77,29.74,-9999.0,SSW,10.4,-,N/A,,Clear,210,2012-11-03 18:00:00
7:30 PM,59.0,51.8,77,29.74,-9999.0,SW,11.5,-,N/A,,Clear,220,2012-11-03 18:30:00
8:00 PM,59.0,50.0,72,29.74,-9999.0,SW,11.5,-,N/A,,Clear,220,2012-11-03 19:00:00
8:30 PM,59.0,50.0,72,29.71,-9999.0,SW,11.5,-,N/A,,Clear,220,2012-11-03 19:30:00
9:00 PM,59.0,50.0,72,29.71,-9999.0,SW,8.1,-,N/A,,Clear,220,2012-11-03 20:00:00
9:30 PM,59.0,50.0,72,29.71,-9999.0,SW,8.1,-,N/A,,Clear,230,2012-11-03 20:30:00
10:00 PM,59.0,50.0,72,29.71,-9999.0,SW,9.2,-,N/A,,Clear,220,2012-11-03 21:00:00
10:30 PM,57.2,48.2,72,29.71,-9999.0,SSW,10.4,-,N/A,,Clear,210,2012-11-03 21:30:00
11:00 PM,57.2,48.2,72,29.71,-9999.0,SW,5.8,-,N/A,,Clear,230,2012-11-03 22:00:00
11:30 PM,57.2,48.2,72,29.71,-9999.0,West,3.5,-,N/A,,Clear,270,2012-11-03 22:30:00